Time,TemperatureF,DewpointF,PressureIn,WindDirection,WindDirectionDegrees,WindSpeedMPH,WindSpeedGustMPH,Humidity,HourlyPrecipIn,Conditions,Clouds,dailyrainin,SoftwareType,DateUTC
2013-03-15 00:03:00,36.0,27.0,30.14,West,273,2.0,5.0,69,0.00,,,0.00,,2013-03-15 04:03:00,
2013-03-15 00:12:00,36.0,27.0,30.14,West,273,2.0,5.0,69,0.00,,,0.00,,2013-03-15 04:12:00,
2013-03-15 00:23:00,36.0,28.0,30.14,West,268,2.0,6.0,71,0.00,,,0.00,,2013-03-15 04:23:00,
2013-03-15 00:33:00,35.0,27.0,30.14,West,268,2.0,4.0,73,0.00,,,0.00,,2013-03-15 04:33:00,
2013-03-15 00:43:00,35.0,27.0,30.14,West,268,2.0,4.0,73,0.00,,,0.00,,2013-03-15 04:43:00,
2013-03-15 00:52:00,35.0,28.0,30.14,West,268,1.0,3.0,74,0.00,,,0.00,,2013-03-15 04:52:00,
2013-03-15 01:02:00,34.0,27.0,30.14,West,268,1.0,2.0,75,0.00,,,0.00,,2013-03-15 05:02:00,
2013-03-15 01:12:00,34.0,27.0,30.14,West,268,1.0,2.0,75,0.00,,,0.00,,2013-03-15 05:12:00,
2013-03-15 01:22:00,34.0,27.0,30.14,West,268,0.0,1.0,75,0.00,,,0.00,,2013-03-15 05:22:00,
2013-03-15 01:32:00,33.0,26.0,30.13,West,268,1.0,2.0,76,0.00,,,0.00,,2013-03-15 05:32:00,
2013-03-15 01:42:00,33.0,26.0,30.13,West,268,1.0,2.0,76,0.00,,,0.00,,2013-03-15 05:42:00,
2013-03-15 01:52:00,33.0,27.0,30.13,West,268,2.0,3.0,77,0.00,,,0.00,,2013-03-15 05:52:00,
2013-03-15 02:02:00,33.0,27.0,30.12,West,267,1.0,6.0,79,0.00,,,0.00,,2013-03-15 06:02:00,
2013-03-15 02:12:00,33.0,27.0,30.12,West,267,1.0,6.0,79,0.00,,,0.00,,2013-03-15 06:12:00,
2013-03-15 02:22:00,33.0,28.0,30.12,West,267,2.0,6.0,80,0.00,,,0.00,,2013-03-15 06:22:00,
2013-03-15 02:32:00,33.0,28.0,30.11,West,267,0.0,3.0,80,0.00,,,0.00,,2013-03-15 06:32:00,
2013-03-15 02:42:00,33.0,28.0,30.11,West,267,0.0,3.0,80,0.00,,,0.00,,2013-03-15 06:42:00,
2013-03-15 02:52:00,33.0,27.0,30.11,West,266,2.0,4.0,79,0.00,,,0.00,,2013-03-15 06:52:00,
2013-03-15 03:02:00,32.0,27.0,30.11,West,266,0.0,2.0,80,0.00,,,0.00,,2013-03-15 07:02:00,
2013-03-15 03:12:00,32.0,27.0,30.11,West,266,0.0,2.0,80,0.00,,,0.00,,2013-03-15 07:12:00,
2013-03-15 03:22:00,32.0,27.0,30.11,West,266,1.0,4.0,80,0.00,,,0.00,,2013-03-15 07:22:00,
2013-03-15 03:32:00,32.0,27.0,30.10,West,266,1.0,3.0,80,0.00,,,0.00,,2013-03-15 07:32:00,
2013-03-15 03:42:00,32.0,27.0,30.10,West,266,1.0,3.0,80,0.00,,,0.00,,2013-03-15 07:42:00,
2013-03-15 03:52:00,31.0,26.0,30.09,West,266,1.0,3.0,81,0.00,,,0.00,,2013-03-15 07:52:00,
2013-03-15 04:02:00,31.0,26.0,30.08,West,266,2.0,4.0,81,0.00,,,0.00,,2013-03-15 08:02:00,
2013-03-15 04:12:00,31.0,26.0,30.08,West,266,2.0,4.0,81,0.00,,,0.00,,2013-03-15 08:12:00,
2013-03-15 04:23:00,31.0,26.0,30.08,West,265,3.0,5.0,82,0.00,,,0.00,,2013-03-15 08:23:00,
2013-03-15 04:33:00,31.0,26.0,30.06,West,259,3.0,7.0,82,0.00,,,0.00,,2013-03-15 08:33:00,
2013-03-15 04:42:00,31.0,26.0,30.06,West,259,3.0,7.0,82,0.00,,,0.00,,2013-03-15 08:42:00,
2013-03-15 04:52:00,31.0,26.0,30.05,WSW,247,3.0,5.0,83,0.00,,,0.00,,2013-03-15 08:52:00,
2013-03-15 05:02:00,31.0,26.0,30.05,SW,222,3.0,7.0,83,0.00,,,0.00,,2013-03-15 09:02:00,
2013-03-15 05:12:00,31.0,26.0,30.05,SW,222,3.0,7.0,83,0.00,,,0.00,,2013-03-15 09:12:00,
2013-03-15 05:22:00,31.0,26.0,30.03,SW,219,3.0,8.0,83,0.00,,,0.00,,2013-03-15 09:22:00,
2013-03-15 05:33:00,31.0,26.0,30.03,SSW,213,2.0,6.0,83,0.00,,,0.00,,2013-03-15 09:33:00,
2013-03-15 05:43:00,31.0,26.0,30.03,SSW,213,2.0,6.0,83,0.00,,,0.00,,2013-03-15 09:43:00,
2013-03-15 05:52:00,31.0,26.0,30.03,SSW,213,2.0,6.0,83,0.00,,,0.00,,2013-03-15 09:52:00,
2013-03-15 06:03:00,31.0,26.0,30.03,SSW,213,0.0,3.0,83,0.00,,,0.00,,2013-03-15 10:03:00,
2013-03-15 06:12:00,31.0,26.0,30.03,SSW,213,0.0,3.0,83,0.00,,,0.00,,2013-03-15 10:12:00,
2013-03-15 06:23:00,31.0,26.0,30.03,SSW,213,0.0,3.0,83,0.00,,,0.00,,2013-03-15 10:23:00,
2013-03-15 06:33:00,31.0,27.0,30.03,SSW,213,1.0,3.0,84,0.00,,,0.00,,2013-03-15 10:33:00,
2013-03-15 06:42:00,31.0,27.0,30.03,SSW,213,1.0,3.0,84,0.00,,,0.00,,2013-03-15 10:42:00,
2013-03-15 06:52:00,31.0,27.0,30.03,SSW,213,0.0,3.0,84,0.00,,,0.00,,2013-03-15 10:52:00,
2013-03-15 07:03:00,31.0,27.0,30.02,SSW,213,0.0,4.0,84,0.00,,,0.00,,2013-03-15 11:03:00,
2013-03-15 07:12:00,31.0,27.0,30.02,SSW,213,0.0,4.0,84,0.00,,,0.00,,2013-03-15 11:12:00,
2013-03-15 07:23:00,31.0,27.0,30.02,SSW,213,0.0,3.0,84,0.00,,,0.00,,2013-03-15 11:23:00,
2013-03-15 07:32:00,31.0,27.0,30.01,SSW,213,3.0,5.0,84,0.00,,,0.00,,2013-03-15 11:32:00,
2013-03-15 07:42:00,31.0,27.0,30.01,SSW,213,3.0,5.0,84,0.00,,,0.00,,2013-03-15 11:42:00,
2013-03-15 07:52:00,31.0,27.0,30.01,SSW,212,2.0,5.0,84,0.00,,,0.00,,2013-03-15 11:52:00,
2013-03-15 08:02:00,31.0,27.0,30.01,SSW,210,2.0,6.0,84,0.00,,,0.00,,2013-03-15 12:02:00,
2013-03-15 08:12:00,31.0,27.0,30.01,SSW,209,2.0,6.0,84,0.00,,,0.00,,2013-03-15 12:12:00,
2013-03-15 08:23:00,31.0,27.0,30.01,SSW,209,2.0,6.0,84,0.00,,,0.00,,2013-03-15 12:23:00,
2013-03-15 08:32:00,31.0,27.0,30.00,SSW,209,2.0,4.0,84,0.00,,,0.00,,2013-03-15 12:32:00,
2013-03-15 08:42:00,31.0,27.0,30.00,SSW,209,2.0,4.0,84,0.00,,,0.00,,2013-03-15 12:42:00,
2013-03-15 08:52:00,31.0,27.0,30.00,SSW,209,3.0,5.0,85,0.00,,,0.00,,2013-03-15 12:52:00,
2013-03-15 09:02:00,32.0,28.0,30.00,SSW,201,5.0,9.0,84,0.00,,,0.00,,2013-03-15 13:02:00,
2013-03-15 09:12:00,32.0,28.0,30.00,SSW,201,5.0,9.0,84,0.00,,,0.00,,2013-03-15 13:12:00,
2013-03-15 09:22:00,33.0,29.0,30.00,SSW,199,3.0,8.0,84,0.00,,,0.00,,2013-03-15 13:22:00,
2013-03-15 09:32:00,34.0,29.0,29.98,SSW,192,3.0,8.0,83,0.00,,,0.00,,2013-03-15 13:32:00,
2013-03-15 09:42:00,34.0,29.0,29.98,SSW,192,3.0,8.0,83,0.00,,,0.00,,2013-03-15 13:42:00,
2013-03-15 09:52:00,34.0,29.0,29.99,South,182,4.0,9.0,82,0.00,,,0.00,,2013-03-15 13:52:00,
2013-03-15 10:02:00,35.0,30.0,29.98,South,178,4.0,8.0,82,0.00,,,0.00,,2013-03-15 14:02:00,
2013-03-15 10:12:00,35.0,30.0,29.98,South,178,4.0,8.0,82,0.00,,,0.00,,2013-03-15 14:12:00,
2013-03-15 10:22:00,36.0,31.0,29.98,South,179,3.0,7.0,82,0.00,,,0.00,,2013-03-15 14:22:00,
2013-03-15 10:33:00,36.0,30.0,29.96,South,174,2.0,9.0,80,0.00,,,0.00,,2013-03-15 14:33:00,
2013-03-15 10:42:00,36.0,30.0,29.96,South,174,2.0,9.0,80,0.00,,,0.00,,2013-03-15 14:42:00,
2013-03-15 10:52:00,37.0,31.0,29.96,South,173,5.0,8.0,80,0.00,,,0.00,,2013-03-15 14:52:00,
2013-03-15 11:02:00,39.0,33.0,29.96,South,173,4.0,8.0,79,0.00,,,0.00,,2013-03-15 15:02:00,
2013-03-15 11:13:00,39.0,33.0,29.96,South,173,4.0,8.0,79,0.00,,,0.00,,2013-03-15 15:13:00,
2013-03-15 11:23:00,40.0,34.0,29.95,South,178,3.0,9.0,78,0.00,,,0.00,,2013-03-15 15:23:00,
2013-03-15 11:33:00,41.0,34.0,29.96,SSW,196,1.0,8.0,76,0.00,,,0.00,,2013-03-15 15:33:00,
2013-03-15 11:42:00,41.0,33.0,29.96,SSW,199,2.0,7.0,74,0.00,,,0.00,,2013-03-15 15:42:00,
2013-03-15 11:52:00,41.0,33.0,29.96,SSW,199,2.0,7.0,74,0.00,,,0.00,,2013-03-15 15:52:00,
2013-03-15 12:03:00,42.0,34.0,29.95,South,187,5.0,7.0,73,0.00,,,0.00,,2013-03-15 16:03:00,
2013-03-15 12:12:00,43.0,35.0,29.94,South,186,3.0,6.0,74,0.00,,,0.00,,2013-03-15 16:12:00,
2013-03-15 12:23:00,43.0,35.0,29.94,South,186,3.0,6.0,74,0.00,,,0.00,,2013-03-15 16:23:00,
2013-03-15 12:32:00,44.0,36.0,29.94,SSW,204,2.0,6.0,72,0.00,,,0.00,,2013-03-15 16:32:00,
2013-03-15 12:42:00,44.0,36.0,29.94,SSW,204,2.0,6.0,72,0.00,,,0.00,,2013-03-15 16:42:00,
2013-03-15 12:52:00,44.0,36.0,29.95,SSW,192,4.0,6.0,72,0.00,,,0.00,,2013-03-15 16:52:00,
2013-03-15 13:02:00,45.0,36.0,29.95,SSW,204,2.0,6.0,71,0.00,,,0.00,,2013-03-15 17:02:00,
2013-03-15 13:12:00,45.0,36.0,29.95,SSW,204,2.0,6.0,71,0.00,,,0.00,,2013-03-15 17:12:00,
2013-03-15 13:22:00,45.0,36.0,29.94,SSW,204,1.0,6.0,70,0.00,,,0.00,,2013-03-15 17:22:00,
2013-03-15 13:32:00,46.0,36.0,29.93,South,188,2.0,6.0,69,0.00,,,0.00,,2013-03-15 17:32:00,
2013-03-15 13:42:00,46.0,36.0,29.93,South,188,2.0,6.0,69,0.00,,,0.00,,2013-03-15 17:42:00,
2013-03-15 13:52:00,46.0,37.0,29.93,South,189,2.0,5.0,70,0.00,,,0.00,,2013-03-15 17:52:00,
2013-03-15 14:03:00,47.0,37.0,29.94,SW,228,3.0,8.0,68,0.00,,,0.00,,2013-03-15 18:03:00,
2013-03-15 14:12:00,47.0,37.0,29.94,SW,228,3.0,8.0,68,0.00,,,0.00,,2013-03-15 18:12:00,
2013-03-15 14:22:00,47.0,37.0,29.94,SW,235,2.0,6.0,68,0.00,,,0.00,,2013-03-15 18:22:00,
2013-03-15 14:32:00,48.0,38.0,29.92,SW,214,2.0,6.0,67,0.00,,,0.00,,2013-03-15 18:32:00,
2013-03-15 14:42:00,48.0,38.0,29.92,SW,214,2.0,6.0,67,0.00,,,0.00,,2013-03-15 18:42:00,
2013-03-15 14:52:00,48.0,37.0,29.92,SSW,212,2.0,6.0,66,0.00,,,0.00,,2013-03-15 18:52:00,
2013-03-15 15:02:00,48.0,37.0,29.90,South,170,4.0,10.0,66,0.00,,,0.00,,2013-03-15 19:02:00,
2013-03-15 15:12:00,48.0,37.0,29.90,South,170,4.0,10.0,66,0.00,,,0.00,,2013-03-15 19:12:00,
2013-03-15 15:22:00,49.0,38.0,29.90,South,172,3.0,9.0,66,0.00,,,0.00,,2013-03-15 19:22:00,
2013-03-15 15:32:00,50.0,39.0,29.89,SSW,210,3.0,8.0,65,0.00,,,0.00,,2013-03-15 19:32:00,
2013-03-15 15:42:00,50.0,39.0,29.89,SSW,210,3.0,8.0,65,0.00,,,0.00,,2013-03-15 19:42:00,
2013-03-15 15:52:00,50.0,39.0,29.88,WSW,237,4.0,10.0,65,0.00,,,0.00,,2013-03-15 19:52:00,
2013-03-15 16:02:00,51.0,39.0,29.88,WSW,239,3.0,7.0,64,0.00,,,0.00,,2013-03-15 20:02:00,
2013-03-15 16:12:00,51.0,39.0,29.88,WSW,239,3.0,7.0,64,0.00,,,0.00,,2013-03-15 20:12:00,
2013-03-15 16:22:00,51.0,39.0,29.88,SSW,199,4.0,8.0,63,0.00,,,0.00,,2013-03-15 20:22:00,
2013-03-15 16:32:00,52.0,40.0,29.88,SSW,194,2.0,6.0,64,0.00,,,0.00,,2013-03-15 20:32:00,
2013-03-15 16:42:00,52.0,40.0,29.88,SSW,194,2.0,6.0,64,0.00,,,0.00,,2013-03-15 20:42:00,
2013-03-15 16:52:00,52.0,40.0,29.87,SSW,199,2.0,8.0,63,0.00,,,0.00,,2013-03-15 20:52:00,
2013-03-15 17:02:00,52.0,39.0,29.86,South,189,3.0,7.0,62,0.00,,,0.00,,2013-03-15 21:02:00,
2013-03-15 17:12:00,52.0,39.0,29.86,South,189,3.0,7.0,62,0.00,,,0.00,,2013-03-15 21:12:00,
2013-03-15 17:22:00,52.0,40.0,29.86,South,191,4.0,7.0,63,0.00,,,0.00,,2013-03-15 21:22:00,
2013-03-15 17:33:00,53.0,41.0,29.85,SSW,194,2.0,6.0,63,0.00,,,0.00,,2013-03-15 21:33:00,
2013-03-15 17:43:00,53.0,41.0,29.85,SSW,194,2.0,6.0,63,0.00,,,0.00,,2013-03-15 21:43:00,
2013-03-15 17:52:00,53.0,40.0,29.85,SSW,197,3.0,6.0,62,0.00,,,0.00,,2013-03-15 21:52:00,
2013-03-15 18:04:00,54.0,41.0,29.85,SSW,199,1.0,5.0,62,0.00,,,0.00,,2013-03-15 22:04:00,
2013-03-15 18:13:00,54.0,41.0,29.85,SSW,199,1.0,5.0,62,0.00,,,0.00,,2013-03-15 22:13:00,
2013-03-15 18:22:00,54.0,41.0,29.86,SSW,200,2.0,4.0,62,0.00,,,0.00,,2013-03-15 22:22:00,
2013-03-15 18:32:00,53.0,40.0,29.86,SSW,206,3.0,7.0,61,0.00,,,0.00,,2013-03-15 22:32:00,
2013-03-15 18:42:00,53.0,40.0,29.86,SSW,206,3.0,7.0,61,0.00,,,0.00,,2013-03-15 22:42:00,
2013-03-15 18:52:00,53.0,40.0,29.85,SSW,207,1.0,6.0,62,0.00,,,0.00,,2013-03-15 22:52:00,
2013-03-15 19:03:00,53.0,41.0,29.85,SSW,206,1.0,3.0,63,0.00,,,0.00,,2013-03-15 23:03:00,
2013-03-15 19:12:00,53.0,41.0,29.85,SSW,206,1.0,3.0,63,0.00,,,0.00,,2013-03-15 23:12:00,
2013-03-15 19:22:00,52.0,40.0,29.85,SSW,207,0.0,2.0,64,0.00,,,0.00,,2013-03-15 23:22:00,
2013-03-15 19:32:00,52.0,40.0,29.85,SSW,207,0.0,0.0,63,0.00,,,0.00,,2013-03-15 23:32:00,
2013-03-15 19:42:00,52.0,40.0,29.85,SSW,207,0.0,0.0,63,0.00,,,0.00,,2013-03-15 23:42:00,
2013-03-15 19:52:00,52.0,40.0,29.85,SSW,207,0.0,0.0,63,0.00,,,0.00,,2013-03-15 23:52:00,
2013-03-15 20:03:00,51.0,39.0,29.85,SSW,207,0.0,0.0,64,0.00,,,0.00,,2013-03-16 00:03:00,
2013-03-15 20:12:00,51.0,39.0,29.85,SSW,207,0.0,0.0,64,0.00,,,0.00,,2013-03-16 00:12:00,
2013-03-15 20:22:00,51.0,40.0,29.85,SSW,207,1.0,2.0,65,0.00,,,0.00,,2013-03-16 00:22:00,
2013-03-15 20:32:00,50.0,39.0,29.84,SSW,206,0.0,0.0,66,0.00,,,0.00,,2013-03-16 00:32:00,
2013-03-15 20:42:00,50.0,39.0,29.84,SSW,206,0.0,0.0,66,0.00,,,0.00,,2013-03-16 00:42:00,
2013-03-15 20:52:00,50.0,39.0,29.83,SSW,206,0.0,2.0,67,0.00,,,0.00,,2013-03-16 00:52:00,
2013-03-15 21:03:00,49.0,38.0,29.83,SSW,207,0.0,0.0,66,0.00,,,0.00,,2013-03-16 01:03:00,
2013-03-15 21:12:00,49.0,38.0,29.83,SSW,207,0.0,0.0,66,0.00,,,0.00,,2013-03-16 01:12:00,
2013-03-15 21:22:00,49.0,38.0,29.84,SSW,207,0.0,0.0,66,0.00,,,0.00,,2013-03-16 01:22:00,
2013-03-15 21:32:00,49.0,39.0,29.83,SSW,207,0.0,0.0,68,0.00,,,0.00,,2013-03-16 01:32:00,
2013-03-15 21:42:00,49.0,39.0,29.83,SSW,207,0.0,0.0,68,0.00,,,0.00,,2013-03-16 01:42:00,
2013-03-15 21:52:00,49.0,39.0,29.83,SSW,207,0.0,0.0,68,0.00,,,0.00,,2013-03-16 01:52:00,
2013-03-15 22:02:00,48.0,39.0,29.83,SSW,207,0.0,2.0,70,0.00,,,0.00,,2013-03-16 02:02:00,
2013-03-15 22:12:00,48.0,39.0,29.83,SSW,207,0.0,2.0,70,0.00,,,0.00,,2013-03-16 02:12:00,
2013-03-15 22:23:00,48.0,39.0,29.83,SSW,207,0.0,0.0,70,0.00,,,0.00,,2013-03-16 02:23:00,
2013-03-15 22:33:00,48.0,39.0,29.80,SSW,207,2.0,3.0,72,0.00,,,0.00,,2013-03-16 02:33:00,
2013-03-15 22:42:00,48.0,39.0,29.80,SSW,207,2.0,3.0,72,0.00,,,0.00,,2013-03-16 02:42:00,
2013-03-15 22:52:00,48.0,39.0,29.80,SSW,207,2.0,3.0,70,0.00,,,0.00,,2013-03-16 02:52:00,
2013-03-15 23:02:00,49.0,39.0,29.80,SSW,205,1.0,4.0,68,0.00,,,0.00,,2013-03-16 03:02:00,
2013-03-15 23:12:00,49.0,39.0,29.80,SSW,205,1.0,4.0,68,0.00,,,0.00,,2013-03-16 03:12:00,
2013-03-15 23:22:00,49.0,39.0,29.78,SSW,201,2.0,4.0,68,0.00,,,0.00,,2013-03-16 03:22:00,
2013-03-15 23:33:00,49.0,39.0,29.77,SSW,192,2.0,4.0,68,0.00,,,0.00,,2013-03-16 03:33:00,
2013-03-15 23:43:00,49.0,39.0,29.77,SSW,192,2.0,4.0,68,0.00,,,0.00,,2013-03-16 03:43:00,
2013-03-15 23:52:00,49.0,39.0,29.76,South,188,1.0,5.0,68,0.00,,,0.00,,2013-03-16 03:52:00,